THORAD AGENA D DEB, 42536

Orbit data source: Space-Track

THORAD AGENA D DEB, 42536 is space debris in SSO originally from a launch on Wed, 08 Apr 1970 UTC launched from the Air Force Western Test Range (AFWTR). Debris objects in space refer to the collection of defunct objects orbiting the Earth. Examples of debris include non-operational satellites, rocket bodies, and fragments generated from explosions, collisions, or faulty payload assembly.

Loading next visibility...
Identifier
42536, 1970-025SS
Orbit
SSO
Country
Flag of USUS
Related business
Manufacturer
Unknown
Mission
Spacecraft
Bus & Motor
Unknown
Mass
Unknown
Launch date (UTC)
1970-04-08 (56 years ago)
Launch vehicle
Unknown
Launch site
Air Force Western Test Range (AFWTR)
Object type
Payload
Rocket body
Debris
Shape & HBR
Unknown shape, 0.1 m
Radar Cross Section
Small (<0.1 m²)

Expand to show TLE details & history
Last TLE update: 1 day ago

TLE from 1 day ago
0 THORAD AGENA D DEB
1 42536U 70025SS  25348.09713784  .00003751  00000-0  20691-2 0  9991
2 42536  99.4950 279.1794 0060840 129.7096 230.9459 14.11220181614384
Epoch: 2025-12-14T02:19Z
TLE epoch observation values (Epoch: 2025-12-14T02:19:52.709Z)
Latitude
0.00004°
Longitude
161.19482°
Altitude
885.969 km
Speed
7.395 km/s
True Right ascension
18h 36m 43s
True Declination
0° 00' 00"
Sunlit
Object was in daylight at epoch
Visualization orbit readout
Latitude
Unknown
Longitude
Unknown
Altitude
Unknown
Speed
Unknown
Apparent Right ascension
Unknown
Apparent Declination
Unknown
Sunlit
N/A
Visualization observer readout
Local Sidereal Time
07:51:26
Azimuth
Unknown
Elevation
Unknown
Doppler factor
Unknown
Orbital elements
Apogee altitude
896.399 km
Perigee altitude
808.418 km
Semi-major axis
7,230.546 km
Eccentricity
0.00608
Inclination
99.495°
RAAN
279.1794°
Arg. of periapsis
129.7096°
True anomaly
230.4071°
Mean anomaly
230.9459°
Eccentric anomaly
230.67624°
Mean motion
3.5301 °/min
Orbital period
101.98 mins
BSTAR
0.0020691
Loading maneuver chart data...
Computing Atmospheric mass density...

Documentation

Showing up to 5 results
|